This demonstration page uses our WeatherBlox Daily Observations layout. Learn more.

Left ArrowRight Arrow

39.08367, -84.50855

Hourly Observations for June 21, 2020

Temp ( °F °C ) Dew Point ( °F °C ) Humidity (%) Winds ( mph kmh ) Pressure ( in mb ) Visibility ( mi km ) Precip ( " mm )
12:53 am 00:53 Clear 70 21.1 66 18.9 87 87 Calm 29.94 1014 8 12.87472 0 0
1:53 am 01:53 Clear with Mist and Fog 68 20 66 18.9 93 93 Calm 29.93 1014 6 9.65604 0 0
2:53 am 02:53 Clear with Mist and Fog 68 20 65 18.3 90 90 Calm 29.93 1014 6 9.65604 0 0
3:53 am 03:53 Clear with Mist and Fog 67 19.4 65 18.3 93 93 Calm 29.92 1013 4 6.43736 0 0
4:53 am 04:53 Clear with Mist and Fog 66 18.9 65 18.3 96 96 Calm 29.92 1013 3 4.82802 0 0
5:34 am 05:34 Clear with Mist and Fog 65 18.3 63 17.2 93 93 Calm 29.93 1014 1.75 2.816345 0 0
5:42 am 05:42 Clear with Mist and Fog 65 18.3 64 17.8 97 97 Calm 29.93 1014 2.5 4.02335 0 0
5:53 am 05:53 Clear with Mist and Fog 65 18.3 64 17.8 97 97 Calm 29.92 1013 2 3.21868 0 0
6:00 am 06:00 Clear with Mist and Fog 64 17.8 63 17.2 96 96 Calm 29.93 1014 0.75 1.207005 0 0
6:16 am 06:16 Sunny with Mist and Fog 64 17.8 63 17.2 96 96 ENE 3 6 29.94 1014 1.25 2.011675 0 0
6:24 am 06:24 Sunny with Fog 64 17.8 63 17.2 96 96 Calm 29.94 1014 0.5 0.80467 0 0
6:32 am 06:32 Sunny with Mist and Fog 65 18.3 63 17.2 93 93 Calm 29.94 1014 3 4.82802 0 0
6:53 am 06:53 Sunny with Mist and Fog 65 18.3 64 17.8 97 97 Calm 29.94 1014 3 4.82802 0 0
7:53 am 07:53 Sunny with Mist and Fog 69 20.6 67 19.4 93 93 Calm 29.95 1014 4 6.43736 0 0
8:53 am 08:53 Sunny 74 23.3 68 20 82 82 undefined N/A 29.96 1014 9 14.48406 0 0
9:53 am 09:53 Sunny 79 26.1 68 20 69 69 Calm 29.96 1014 10 16.0934 0 0
10:53 am 10:53 Sunny 83 28.3 66 18.9 57 57 W 6 9 29.95 1014 10 16.0934 0 0
11:53 am 11:53 Sunny 85 29.4 67 19.4 55 55 S 6 9 29.94 1014 10 16.0934 0 0
12:53 pm 12:53 Mostly Sunny 87 30.6 65 18.3 48 48 Calm 29.93 1014 10 16.0934 0 0
1:53 pm 13:53 Partly Cloudy 86 30 64 17.8 48 48 E 6 9 29.91 1013 10 16.0934 0 0
2:53 pm 14:53 Sunny 88 31.1 62 16.7 42 42 S 7 11 29.89 1012 10 16.0934 0 0
3:16 pm 15:16 Mostly Cloudy with Nearby Thunderstorms 77 25 63 17.2 62 62 W 20 31 29.93 1014 10 16.0934 0 0
3:53 pm 15:53 Cloudy with Nearby Thunderstorms 73 22.8 67 19.4 81 81 SSE 5 7 29.96 1014 10 16.0934 0.02 0.508
4:03 pm 16:03 Cloudy with Light Rain 73 22.8 67 19.4 81 81 Calm 29.94 1014 10 16.0934 0.001 0.001
4:53 pm 16:53 Mostly Cloudy 74 23.3 67 19.4 79 79 Calm 29.92 1013 10 16.0934 0.001 0.001
5:53 pm 17:53 Mostly Sunny 76 24.4 68 20 77 77 ENE 5 7 29.9 1013 10 16.0934 0 0
6:53 pm 18:53 Cloudy 74 23.3 69 20.6 85 85 SSW 5 7 29.91 1013 10 16.0934 0 0
7:53 pm 19:53 Mostly Cloudy 75 23.9 68 20 79 79 Calm 29.91 1013 10 16.0934 0 0
8:53 pm 20:53 Partly Cloudy with Light Rain 73 22.8 67 19.4 81 81 NE 3 6 29.9 1013 10 16.0934 0.001 0.001
9:53 pm 21:53 Cloudy with Rain 70 21.1 69 20.6 97 97 Calm 29.9 1013 5 8.0467 0.06 1.524
10:53 pm 22:53 Cloudy with Light Rain 71 21.7 68 20 90 90 Calm 29.91 1013 6 9.65604 0.06 1.524
11:53 pm 23:53 Cloudy 71 21.7 68 20 90 90 Calm 29.91 1013 9 14.48406 0.01 0.254

Powered by AerisWeather